CAPE
1106 1410 1200 1284 968 1446 1338 1506 1714 1805 1573 2001 1753 1520 1433 1166 1194 1031 810 1108 1172 661 1008 648 1031 1032 930 675 447 847 992 932 568 365 429 390 447 542 293 316 599 437 613
778 1305 1395 1340 1521 1451 1581 1670 1970 2310 1849 2018 1981 1911 1479 1219 1096 1104 1187 1328 822 1128 1030 721 1074 1120 794 956 1419 1052 498 309 470 563 231 38 35 145 648 499 381 359 229
996 847 769 962 1820 1932 2079 1894 2500 2947 2448 2235 1889 1936 1966 1778 1424 1078 1254 1624 1259 1169 1310 908 951 1080 878 819 696 1298 1019 764 640 714 431 163 33 75 249 278 296 368 331
1122 918 1002 1269 1024 2116 2139 2494 2716 2970 2576 2706 1870 1794 1769 1450 1332 1214 1023 1280 838 292 835 1038 1070 496 873 628 858 826 1086 809 268 447 1020 839 80 12 135 59 0 405 350
1193 1089 1013 1246 1526 1496 1975 2784 3189 3166 2750 2539 2407 2018 1659 1492 1744 1747 1368 1273 1233 842 347 1156 940 943 1250 427 444 963 873 1015 544 868 589 918 630 767 411 85 198 389 380
1294 1412 1524 1664 1825 1812 1873 2265 3023 2818 2761 2657 2492 2194 1982 1505 1182 1034 574 684 1392 1552 1252 1397 1207 1323 1551 865 831 919 1127 1014 1084 1042 808 630 420 60 301 328 272 334 499
635 1417 1824 1943 1866 1840 1852 1993 2467 2857 2972 2709 2429 2550 2507 2143 1018 645 312 59 348 1060 1193 1207 1368 1262 1627 1415 1644 1168 717 1201 660 532 798 779 890 407 568 377 211 233 226
717 1287 2074 2244 2195 2107 1919 1882 2356 2568 2655 2424 2130 1877 1599 1053 743 347 92 86 129 69 46 1055 1112 985 1430 1412 1337 1468 1469 677 421 669 1220 1127 673 774 563 630 329 14 124
717 1088 1559 1935 2122 2289 2346 2495 2689 2601 2214 1892 1242 610 264 106 207 119 79 30 77 352 696 674 908 1375 1432 1553 1682 1539 1657 912 873 919 823 876 590 764 808 899 771 665 387
816 960 1337 1609 1788 1943 2162 2295 2391 2329 1739 1094 705 515 124 6 22 92 68 55 271 690 976 1309 1370 1125 1373 1564 1447 1415 1599 1577 1353 887 592 867 850 832 1013 972 810 610 517
927 1048 1373 1586 1742 1778 1697 1697 1638 1660 1699 1225 830 557 223 89 16 0 85 170 286 611 927 1367 1587 1454 1402 1388 1471 1374 1320 1260 1231 825 932 669 530 703 641 1155 1064 792 542
1206 1255 1406 1589 1821 2000 1943 1941 1833 1636 1674 1415 1165 541 208 70 32 24 75 215 123 529 1184 1381 1439 1411 1157 1251 1600 1198 1196 882 983 827 579 514 694 763 961 595 595 274 895
1374 1569 1942 2117 2229 2514 2575 2374 2151 2002 1871 1811 1663 1229 660 68 42 296 485 771 601 912 1807 1430 1409 1476 1145 912 1103 1443 1070 1187 1378 1255 919 505 429 399 894 1095 891 902 786
2246 2365 2346 2617 2668 2777 2825 2718 2733 2918 2786 2588 2287 1919 1688 1214 1043 940 767 774 878 1055 720 1352 1598 1257 274 1007 1162 1346 1484 1220 712 933 584 677 654 445 1023 816 962 400 578
1873 1983 2106 2251 2336 2195 1888 1782 2017 2487 2681 2502 2495 2175 1840 2062 1882 1765 1729 1858 1937 1801 1872 1696 1505 963 562 210 582 1402 962 919 1188 520 741 1113 1047 1427 1209 1142 1420 673 661
1703 1831 1851 1675 1399 1065 629 637 757 772 793 829 804 826 809 749 780 942 943 1225 1758 1820 1686 1700 1560 1354 1013 901 790 644 503 307 446 294 327 303 291 491 741 998 1037 813 506
1548 1520 1451 1322 937 633 489 446 442 403 400 383 370 331 332 368 427 541 788 828 781 1065 1070 1178 1214 1092 1066 996 745 782 759 694 684 769 730 741 661 436 525 481 497 553 734
1175 1219 1264 997 759 554 397 386 447 548 454 385 308 220 203 195 208 262 176 107 312 543 689 621 577 661 827 633 486 372 557 563 754 972 766 722 534 721 636 423 562 516 688
1103 1013 830 447 331 271 392 424 394 442 519 414 454 392 295 295 276 274 363 407 303 295 254 209 421 552 666 415 257 111 114 64 393 245 238 483 398 516 413 384 406 479 487
713 510 267 205 296 444 425 477 494 511 674 637 300 208 370 295 316 334 301 170 322 355 246 77 72 138 145 229 280 127 208 136 26 20 288 166 70 113 488 377 264 207 310
605 543 454 319 99 343 253 148 27 15 335 418 332 301 387 406 302 192 225 210 253 374 508 444 418 431 328 299 138 42 111 153 39 0 0 0 0 0 0 184 416 223 240
279 53 10 19 38 18 34 120 309 608 600 418 358 376 408 367 192 352 461 486 407 259 264 179 216 294 369 283 183 72 43 183 26 0 0 0 0 0 0 0 8 174 296
1 6 15 0 0 86 294 355 333 326 330 305 192 118 89 52 40 55 33 42 114 225 253 211 256 124 0 0 1 1 45 143 2 0 0 0 0 0 0 0 0 0 14
1 0 0 10 51 49 124 241 240 211 161 132 83 41 17 8 0 0 0 0 0 0 1 5 13 10 0 0 4 64 109 46 0 0 26 15 0 0 0 0 0 0 59
0 18 13 12 31 62 164 86 77 81 94 43 26 24 16 13 13 4 0 0 1 8 7 0 0 0 0 0 0 0 0 0 0 4 0 0 191 0 0 0 1 0 100
42 40 34 37 119 51 32 26 47 61 39 32 15 12 8 11 13 1 2 1 3 1 0 0 1 3 0 0 0 0 0 0 0 0 0 0 0 27 0 11 3 1 32
CIN
-7 -4 -10 -12 -13 -4 -7 -16 -14 -12 -35 -6 -14 -21 -13 -2 -1 -10 -11 -9 -14 -38 -22 -14 -9 -12 -9 -18 -24 -20 -2 -6 -24 -13 -19 -29 -31 -15 -9 -18 -10 -12 -8
-15 -6 -3 -4 -62 -31 -70 -29 -25 -22 -37 -11 -10 -3 -12 -6 -10 -10 -6 -11 -16 -8 -7 -28 -19 -3 -10 -11 -7 -16 -31 -38 -19 -8 -26 -44 -72 -46 -14 -15 -8 -13 -24
-24 -12 -16 -15 -14 -22 -36 -47 -24 -13 -26 -23 -19 -5 -4 -3 -9 -13 -9 -13 -21 -3 -10 -23 -20 -7 -10 -11 -18 -11 -19 -18 -19 -14 -7 -22 -29 -46 -45 -39 -64 -20 -12
-25 -17 -5 -7 -20 -21 -23 -21 -20 -17 -25 -16 -16 -3 -3 -6 -4 -14 -22 -19 -26 -179 -15 -13 -19 -29 -34 -20 -21 -18 -11 -22 -30 -18 -10 -15 -26 -24 -14 -60 -6 -42 -19
-29 -34 -32 -20 -5 -3 -5 -10 -14 -10 -11 -11 -10 -15 -15 -13 -5 -5 -6 -18 -15 -15 -82 -18 -29 -27 -23 -54 -39 -9 -10 -20 -34 -7 -7 -13 -16 -14 -11 -13 -19 -16 -21
-31 -49 -67 -52 -39 -24 -3 -6 -9 -9 -7 -8 -9 -17 -14 -22 -15 -18 -48 -35 -6 -8 -12 -7 -7 -20 -17 -45 -26 -26 -9 -18 -9 -15 -17 -12 -20 -30 -20 -22 -23 -19 -23
-68 -62 -68 -58 -70 -63 -38 -18 -9 -11 -6 -3 -4 -3 -3 -8 -14 -35 -55 -104 -50 -17 -10 -13 -21 -31 -19 -30 -10 -18 -27 -15 -27 -27 -14 -13 -6 -16 -12 -18 -26 -35 -31
-69 -62 -64 -74 -65 -66 -54 -33 -23 -9 -2 -5 -25 -26 -9 -5 -8 -51 -117 -69 -55 -95 -85 -11 -15 -48 -13 -18 -12 -10 -11 -42 -58 -33 -9 -9 -14 -13 -16 -11 -23 -64 -42
-48 -61 -62 -62 -57 -45 -29 -19 -16 -13 -15 -12 -55 -92 -111 -17 -8 -16 -50 -104 -78 -27 -9 -37 -5 -11 -14 -7 -3 -6 -2 -29 -25 -16 -17 -16 -29 -9 -9 -12 -14 -12 -24
-34 -46 -56 -68 -55 -44 -37 -19 -15 -15 -36 -81 -92 -105 -141 -26 -13 -4 -18 -19 -47 -40 -7 -2 -11 -32 -12 -4 -9 -12 -1 -4 -9 -23 -28 -7 -9 -9 -4 -7 -13 -20 -18
-14 -38 -40 -55 -52 -58 -62 -66 -65 -44 -37 -61 -76 -79 -117 -70 -56 -30 -38 -47 -54 -37 -7 -7 -6 -14 -8 -4 -8 -19 -10 -2 -12 -27 -12 -9 -15 -18 -13 -4 -7 -13 -21
-7 -25 -23 -34 -37 -40 -49 -42 -44 -29 -6 -28 -56 -93 -128 -149 -179 -185 -150 -32 -55 -19 -3 -5 -12 -15 -18 -13 -3 -19 -16 -17 -30 -48 -28 -21 -20 -26 -15 -20 -22 -30 -18
-7 -7 -6 -2 -6 -14 -18 -16 -20 -9 -10 -2 -7 -38 -79 -178 -189 -80 -35 -9 -27 -20 -3 -19 -19 -20 -25 -15 -18 -10 -17 -12 -4 -20 -30 -62 -56 -43 -16 -9 -29 -14 -8
-10 -7 -7 -4 -3 -5 -3 -2 -2 -2 -2 -3 -2 -4 -18 -36 -43 -39 -46 -38 -41 -47 -63 -31 -12 -19 -116 -52 -28 -10 -5 -16 -18 -15 -22 -34 -48 -49 -14 -19 -21 -24 -25
-7 -10 -3 -2 -5 -22 -44 -49 -30 -7 -3 -4 -4 -5 -10 -6 -10 -16 -17 -15 -9 -12 -5 -12 -26 -44 -68 -100 -48 -3 -12 -13 -8 -21 -17 -9 -9 -3 -4 -8 -9 -24 -29
-3 -12 -6 -5 -25 -62 -100 -107 -80 -74 -63 -52 -51 -35 -33 -40 -42 -33 -36 -21 -5 -6 -6 -7 -7 -20 -43 -48 -37 -23 -10 -24 -14 -23 -13 -11 -14 -13 -17 -10 -7 -21 -23
-9 -5 -1 -9 -40 -69 -76 -102 -95 -85 -63 -48 -29 -27 -23 -11 -14 -27 -16 -22 -38 -21 -24 -18 -13 -20 -17 -19 -36 -26 -28 -26 -15 -16 -20 -18 -19 -25 -8 -21 -34 -40 -27
-8 -1 -2 -2 -8 -5 -18 -42 -25 -26 -48 -47 -51 -48 -46 -47 -42 -32 -38 -70 -35 -18 -11 -22 -25 -21 -14 -29 -58 -76 -48 -44 -27 -7 -26 -23 -37 -37 -25 -24 -22 -22 -21
-5 -4 -2 -2 -14 -21 -13 -10 -34 -40 -47 -58 -23 -35 -26 -15 -21 -21 -10 -10 -23 -19 -26 -33 -11 -8 -9 -44 -84 -125 -119 -153 -56 -75 -63 -49 -50 -51 -48 -37 -24 -22 -16
-2 -3 -13 -3 -5 -14 -13 -11 -13 -23 -19 -19 -51 -70 -34 -32 -14 -9 -10 -39 -11 -13 -29 -90 -107 -70 -88 -57 -71 -120 -72 -88 -149 -127 -63 -70 -82 -100 -46 -28 -26 -39 -30
-2 -3 -3 -3 -26 -14 -29 -59 -68 -30 -43 -29 -60 -38 -17 -14 -27 -38 -17 -29 -16 -6 -1 -3 -7 -19 -34 -55 -127 -200 -102 -80 -149 0 0 0 0 0 0 -77 -25 -38 -40
-14 -38 -65 -71 -73 -74 -88 -99 -34 -8 -24 -46 -36 -32 -23 -12 -23 -8 -5 -3 -5 -16 -17 -52 -55 -35 -20 -39 -101 -189 -192 -80 -228 0 0 0 0 0 0 0 -52 -92 -53
-7 -75 -73 -1 0 -45 -35 -37 -55 -27 -51 -50 -91 -124 -136 -135 -153 -138 -148 -125 -53 -22 -18 -20 -9 -76 -1 0 -6 -37 -221 -122 -53 0 0 0 0 0 0 0 0 0 -21
-17 0 -10 -63 -55 -59 -49 -44 -68 -86 -107 -101 -119 -167 -1 -2 0 0 0 0 0 -1 -39 -32 -25 -37 0 0 -17 -210 -186 -154 -9 -7 -45 -107 0 0 0 0 0 0 -74
0 -95 -61 -48 -46 -77 -33 -82 -96 -110 -105 -134 -3 -2 -2 -2 -3 -3 0 0 -1 -1 -3 0 0 0 0 0 0 0 0 0 -15 -17 0 0 -25 0 0 0 0 0 -89
-56 -77 -56 -31 -31 -57 -31 -7 -15 -57 -2 -2 -2 -1 -3 -1 -2 -1 -1 -2 -9 -5 -6 -2 -3 -10 0 0 0 0 0 0 0 0 0 0 0 -77 0 -24 -1 0 -87
Wind_Speed
12 8 7 9 10 17 5 17 9 3 3 3 2 4 7 6 8 4 3 5 5 5 14 10 8 10 10 11 11 12 13 12 14 12 15 21 21 22 19 18 15 17 16
12 10 10 11 12 12 10 11 10 6 7 9 5 1 5 7 4 6 10 8 1 2 6 5 6 9 8 8 8 8 10 12 13 11 11 10 12 16 15 17 16 14 18
15 12 10 11 10 10 10 11 13 10 7 9 7 0 9 14 17 12 13 8 3 5 8 11 11 10 9 7 6 6 7 8 11 8 10 11 9 9 6 25 23 22 17
17 14 11 9 9 10 10 14 12 8 6 4 9 3 5 11 17 14 12 11 17 17 16 13 6 12 12 7 7 5 5 7 8 7 7 8 8 9 12 11 21 18 12
19 16 15 13 12 10 10 10 9 9 7 6 7 7 7 16 22 22 16 12 11 11 8 1 6 7 7 6 5 12 4 5 4 5 7 6 8 8 6 9 9 9 11
20 20 19 18 16 14 12 11 9 7 6 4 2 5 7 10 14 30 30 34 22 8 8 6 2 4 9 7 6 10 8 5 9 17 18 10 8 7 7 6 6 5 10
19 21 21 20 19 18 15 13 11 9 7 7 6 3 7 12 15 19 20 30 35 25 9 9 8 8 6 5 6 5 5 13 12 14 13 9 5 8 6 6 5 6 6
20 21 21 20 19 18 16 15 14 10 9 9 8 8 13 14 13 15 18 14 29 29 32 23 5 8 7 3 3 2 3 11 14 13 16 18 22 9 2 5 8 8 9
20 20 20 19 19 18 17 16 15 14 13 13 19 22 24 16 8 10 23 23 30 35 1 18 31 15 13 10 2 2 1 3 11 12 16 19 21 17 8 11 6 6 8
19 20 20 19 18 18 18 18 18 16 17 19 22 28 30 32 14 13 16 24 27 29 28 21 21 22 22 16 10 4 3 3 5 10 9 13 16 19 15 6 5 3 5
17 18 18 18 18 19 18 18 17 18 17 18 22 25 27 27 25 15 9 20 23 28 29 28 27 26 25 17 12 8 4 4 3 6 10 17 20 27 25 21 14 8 7
16 17 17 17 18 18 18 18 19 20 18 19 19 20 21 20 21 17 12 20 23 25 26 28 28 30 27 21 21 19 13 9 10 5 9 16 21 19 17 20 13 3 1
14 13 17 17 18 18 19 19 19 21 21 18 15 14 14 11 9 9 8 7 20 24 27 27 28 29 30 30 28 23 17 13 11 6 8 10 17 20 24 18 9 17 13
16 16 18 18 18 19 19 20 21 23 22 22 20 19 12 10 7 5 4 5 13 21 27 29 28 25 27 26 27 25 25 28 14 12 10 9 8 12 24 27 25 18 18
13 13 15 16 17 18 19 21 22 23 22 22 22 23 21 17 13 8 4 6 3 11 10 1 2 1 18 27 30 30 31 30 29 27 27 18 17 12 21 23 21 21 18
12 14 15 14 16 17 18 20 22 23 24 24 24 24 24 25 24 24 26 27 26 26 19 10 1 11 8 19 30 31 31 9 28 33 32 34 35 38 32 34 16 15 14
10 12 11 13 15 15 16 18 21 22 25 25 25 25 26 26 28 28 28 28 28 28 28 29 30 31 31 32 32 30 28 3 28 31 30 31 31 33 37 27 22 18 16
11 12 11 11 11 13 15 19 18 18 19 20 18 18 22 26 29 30 30 30 30 29 28 29 29 28 28 26 25 26 29 23 12 26 30 26 33 31 33 33 30 24 21
10 11 12 12 15 17 16 15 18 20 19 19 19 20 20 22 25 29 29 28 28 30 30 28 26 27 28 21 23 23 23 24 16 16 13 14 24 31 30 30 30 32 29
11 13 15 14 13 10 16 14 18 21 21 21 24 25 24 22 24 28 29 29 29 29 29 30 31 31 30 23 17 15 18 20 23 23 17 14 7 11 13 24 24 31 30
15 17 18 20 23 21 23 25 29 30 25 27 27 26 24 24 22 17 22 26 26 26 28 31 32 31 27 22 13 12 16 18 21 22 23 25 24 27 28 21 25 22 26
17 19 21 23 26 27 26 24 28 29 29 30 29 29 29 27 27 30 31 30 30 33 32 31 28 23 16 13 12 11 12 17 21 24 26 27 29 31 31 32 34 29 26
22 23 26 26 26 28 23 25 26 29 28 28 30 31 31 30 28 27 27 26 25 22 23 23 23 26 29 28 28 15 11 14 20 24 28 31 36 37 37 38 37 34 29
25 28 30 29 29 29 29 27 26 26 28 30 32 32 32 32 30 26 27 26 27 28 28 29 29 29 30 31 30 23 18 18 22 24 26 27 29 32 35 36 33 26 23
27 26 29 31 31 31 30 31 32 33 33 33 33 32 31 30 32 32 33 33 32 29 30 30 31 34 36 32 30 28 26 27 26 25 31 32 32 34 33 32 32 28 22
27 28 29 30 30 32 33 34 32 32 32 33 34 35 37 36 35 38 39 36 37 36 34 34 31 29 29 27 26 25 29 31 29 31 32 34 33 33 34 33 33 29 25
Wind_Direction
112 108 89 133 18 151 341 121 102 89 67 35 100 357 329 333 329 331 322 348 5 41 170 153 97 116 119 126 118 105 131 109 145 108 336 229 226 209 191 187 179 178 181
62 84 139 141 134 136 129 100 118 117 143 156 153 97 335 325 309 314 312 310 242 141 138 49 84 125 47 94 79 67 41 149 147 112 84 98 166 184 177 185 181 172 183
55 91 131 174 143 127 116 130 148 138 142 167 171 185 321 314 308 300 301 303 267 301 328 326 243 327 347 89 50 72 85 75 147 115 70 62 102 122 23 245 220 207 186
54 66 82 109 140 144 136 150 144 138 133 148 195 247 304 306 302 298 290 290 294 228 309 312 328 180 319 352 19 43 43 38 138 95 118 88 84 75 42 134 201 203 174
74 94 81 81 76 95 106 121 116 130 130 149 189 215 236 299 295 293 286 288 291 308 323 261 312 170 325 336 351 190 18 15 46 58 37 82 133 160 92 77 134 151 176
68 63 67 63 67 64 71 76 74 77 86 110 151 215 247 270 264 279 279 269 276 287 302 309 199 300 319 327 330 325 335 344 338 317 320 351 24 59 77 99 109 113 177
70 58 65 66 76 79 81 73 66 69 70 40 24 341 305 279 276 261 270 281 261 276 282 297 306 316 333 334 328 330 316 315 318 320 325 341 5 4 155 57 88 69 140
56 54 58 66 74 78 80 71 61 71 64 48 27 357 330 310 287 265 262 270 270 281 266 279 297 318 334 339 334 320 319 311 307 313 311 312 301 354 67 47 31 30 29
57 59 60 61 62 63 66 57 54 55 54 43 20 12 1 345 309 286 274 283 254 260 82 284 245 309 317 321 322 327 278 318 309 309 307 303 302 312 347 355 28 39 39
51 51 51 55 60 57 53 53 43 52 42 29 24 20 27 32 1 328 294 271 260 270 274 289 296 299 299 314 316 314 196 188 314 310 309 306 308 307 321 353 15 76 153
52 49 51 53 50 46 47 43 39 35 38 36 29 31 41 53 53 19 315 249 249 268 275 276 284 287 293 312 317 309 270 287 272 307 307 299 295 287 290 305 331 347 160
44 45 49 46 45 42 40 39 33 26 32 33 36 40 53 70 71 99 352 247 250 256 260 275 287 282 293 306 302 307 310 298 300 283 297 296 293 294 301 300 322 337 52
42 48 41 33 34 33 29 26 27 20 18 32 41 48 51 71 104 103 129 44 326 301 287 291 294 293 292 295 293 304 311 308 301 273 288 295 289 285 284 298 311 313 318
25 33 25 24 23 31 27 23 19 11 12 13 19 20 43 55 72 142 150 178 219 248 270 294 301 320 303 306 304 304 305 299 309 300 294 289 289 289 281 279 288 300 302
12 28 26 24 24 27 23 20 18 18 18 18 15 8 9 14 28 52 174 200 112 216 210 91 215 139 257 300 300 298 292 304 305 299 294 299 296 287 289 287 291 294 299
21 14 17 23 19 25 20 14 11 11 9 7 5 4 359 354 356 351 339 328 327 318 343 360 234 220 206 234 276 288 286 232 309 284 284 280 279 268 281 277 290 292 294
13 12 21 15 11 12 13 8 5 4 0 1 2 359 352 346 338 332 329 329 324 321 316 308 299 292 283 281 297 305 311 327 301 282 296 297 295 286 275 290 291 288 287
5 8 10 19 18 15 12 353 359 3 3 6 12 12 4 350 339 332 326 321 321 322 320 317 311 312 312 313 317 318 311 321 328 305 297 312 296 294 291 290 290 289 286
4 6 5 5 358 353 352 353 353 356 355 360 1 359 0 357 348 338 332 333 329 322 319 320 323 319 314 323 321 322 323 319 322 318 313 315 309 297 299 295 291 285 287
9 2 357 358 357 356 352 347 343 344 345 347 347 347 348 349 346 336 331 329 327 324 321 316 316 315 313 319 320 321 321 320 317 315 318 317 284 307 301 301 295 286 287
359 350 344 344 342 342 336 330 328 328 338 336 336 341 344 343 343 343 338 331 328 326 321 316 315 315 318 319 317 311 316 318 318 315 311 309 313 309 306 302 295 294 290
349 346 342 338 335 336 334 330 325 329 328 328 330 333 334 335 335 330 327 324 322 316 315 315 318 322 323 314 310 296 296 311 314 314 309 304 302 303 303 301 294 294 290
338 337 335 335 336 332 337 327 326 326 326 326 326 326 328 328 329 328 327 326 325 322 320 319 319 319 318 319 318 312 291 304 311 312 310 304 297 294 296 299 298 294 282
333 331 330 330 330 330 328 331 330 328 327 325 325 325 325 325 326 327 325 324 323 320 318 314 314 315 316 317 322 328 320 313 313 314 313 313 310 303 298 299 304 301 283
331 332 331 330 327 327 328 327 325 324 322 321 322 322 324 324 323 322 318 316 316 317 314 313 310 307 306 309 309 308 309 309 312 309 307 307 305 303 301 298 299 298 290
330 329 330 330 328 327 324 323 323 322 322 320 319 319 318 319 320 317 314 315 313 313 314 310 307 307 307 307 306 303 304 301 300 300 300 299 300 300 297 293 292 293 289